Location: Prague
(50.0830°N, 14.4670°E)
Time: 18:19:07
(UTC+01:00)

RS-44 - Visible Passes

Search period start: 03 December 2021 00:00
Search period end: 13 December 2021 00:00
Orbit: 1174 x 1511 km, 82.5° (Epoch: 02 December)

Date Brightness Start Highest point End Pass type
(mag) Time Alt. Az. Time Alt. Az. Time Alt. Az.
03 Dec ? 04:11:02 10° NNE 04:15:24 16° NE 04:19:54 10° E visible
03 Dec ? 06:03:03 10° N 06:10:30 64° ENE 06:18:27 10° SSE visible
03 Dec ? 18:48:06 10° SSE 19:03:47 - NNE 18:50:12 20° SSE visible
03 Dec ? 20:41:36 10° SW 20:56:22 - N 20:42:53 16° SW visible
04 Dec ? 04:34:04 10° N 04:39:53 23° ENE 04:45:57 10° ESE visible
04 Dec ? 06:26:48 10° N 06:34:21 89° W 06:42:28 10° S visible
04 Dec ? 19:11:18 10° S 19:27:10 - NNE 19:15:16 35° SSE visible
04 Dec ? 21:06:29 10° WSW 21:19:44 - N 21:07:58 15° WSW visible
05 Dec ? 04:57:26 10° N 05:04:11 34° ENE 05:11:17 10° SE visible
05 Dec ? 06:50:40 10° NNW 06:58:05 62° W 07:06:02 10° S visible
05 Dec ? 17:44:34 10° SE 17:57:53 - NNE 17:47:46 19° E visible
05 Dec ? 19:34:57 10° SSW 19:50:26 - N 19:40:28 57° SSW visible
05 Dec ? 21:31:58 10° W 21:42:59 - N 21:33:12 13° W visible
06 Dec ? 03:29:51 10° NNE 03:32:41 12° NE 03:35:33 10° ENE visible
06 Dec ? 05:20:59 10° N 05:28:18 49° ENE 05:36:06 10° SE visible
06 Dec ? 18:06:47 10° SE 18:12:58 33° E 18:13:11 33° E visible
06 Dec ? 19:59:01 10° SSW 20:13:33 - N 20:05:56 56° WNW visible
06 Dec ? 21:58:19 10° WNW 22:06:05 - NNW 21:58:40 11° WNW visible
07 Dec ? 03:52:21 10° NNE 03:57:20 18° NE 04:02:29 10° E visible
07 Dec ? 05:44:39 10° N 05:52:16 71° ENE 06:00:25 10° SSE visible
07 Dec ? 18:29:36 10° SSE 18:36:27 50° E 18:39:04 35° NE visible
07 Dec ? 20:23:32 10° SW 20:30:07 38° WNW 20:36:47 10° N visible
08 Dec ? 04:15:32 10° N 04:21:46 26° ENE 04:28:18 10° ESE visible
08 Dec ? 06:08:26 10° NNW 06:16:05 82° W 06:24:19 10° S visible
08 Dec ? 17:04:14 10° ESE 17:07:59 15° ENE 17:11:45 10° NE visible
08 Dec ? 18:52:55 10° S 19:00:04 75° E 19:07:18 10° NNE visible
08 Dec ? 20:48:32 10° WSW 20:54:20 26° WNW 21:00:15 10° N visible
09 Dec ? 04:38:58 10° N 04:46:01 38° ENE 04:53:29 10° SE visible
09 Dec ? 06:32:20 10° NNW 06:39:47 57° W 06:47:47 10° SSW visible
09 Dec ? 17:25:45 10° SE 17:31:11 24° E 17:36:39 10° NNE visible
09 Dec ? 19:16:40 10° SSW 19:23:50 75° WNW 19:31:08 10° N visible
09 Dec ? 21:14:11 10° W 21:18:47 18° NW 21:23:27 10° NNW visible
10 Dec ? 03:10:55 10° NNE 03:14:40 14° NE 03:18:31 10° ENE visible
10 Dec ? 05:02:34 10° N 05:10:06 55° ENE 05:18:10 10° SSE visible
10 Dec ? 06:56:23 10° NNW 07:03:21 39° W 07:10:46 10° SSW visible
10 Dec ? 17:48:09 10° SSE 17:54:32 36° E 18:01:01 10° NNE visible
10 Dec ? 19:40:50 10° SSW 19:47:46 50° WNW 19:54:51 10° N visible
10 Dec ? 21:40:54 10° WNW 21:43:26 12° NW 21:45:58 10° NNW visible
11 Dec ? 03:33:45 10° N 03:39:16 20° NE 03:45:00 10° ESE visible
11 Dec ? 05:26:16 10° N 05:34:02 78° E 05:42:23 10° SSE visible
11 Dec ? 18:11:07 10° SSE 18:18:02 55° E 18:25:07 10° NNE visible
11 Dec ? 20:05:28 10° SW 20:11:52 34° WNW 20:18:27 10° N visible
12 Dec ? 03:57:03 10° N 04:03:40 29° ENE 04:10:37 10° ESE visible
12 Dec ? 05:50:05 10° NNW 05:57:50 75° W 06:06:10 10° S visible
12 Dec ? 16:45:11 10° ESE 16:49:29 17° ENE 16:53:51 10° NE visible
12 Dec ? 18:34:32 10° S 18:41:42 83° E 18:49:02 10° NNE visible
12 Dec ? 20:30:36 10° WSW 20:36:10 23° WNW 20:41:52 10° N visible
